User: anonymous   Login
Location: Rio Negrinho
(26.2394°S, 49.4999°W)
Time: 09:57:45
(UTC+00:00)
Language:

SKYMED 2 - Orbit

View from above orbital plane
View from above orbital plane
View from above satellite
View from above satellite

Ground track
Ground track

The orbit data is extracted from the following two-line orbital elements,

1 32376U 07059A   21166.78577974 -.00000287  00000-0 -29541-4 0  9996
2 32376  97.8899 350.7040 0001631  94.1303 266.0096 14.82150111731399
Epoch (UTC): 15 June 2021 18:51:31
Eccentricity: 0.0001631
inclination: 97.8899°
perigee height: 621 km
apogee height: 623 km
right ascension of ascending node: 350.7040°
argument of perigee: 94.1303°
revolutions per day: 14.82150111
mean anomaly at epoch: 266.0096°
orbit number at epoch: 73139

The dashed part of the orbit path shows where the satellite is in the earth's shadow,  

DLR